Tracking 20721 objects as of 1-Jun-2020
HD Live streaming from Space Station
objects crossing your sky now

FENGYUN 1C DEB

Track FENGYUN 1C DEB now!
10-day predictions


NORAD ID: 33646
Int'l Code: 1999-025DEF
Perigee: 835.6 km
Apogee: 1,017.2 km
Inclination: 98.5 °
Period: 103.4 minutes
Semi major axis: 7297 km
RCS: 0.0171 m2 (small)
Launch date: May 10, 1999
Source: People's Republic of China (PRC)
Launch site: Taiyaun Space Center, China (TSC)

Note: This is SATELLITE DEBRIS
aabbcc
Your satellite tracking list
Your tracking list is empty




NASA's NSSDC Master Catalog

Two Line Element Set (TLE):
1 33646U 99025DEF 20150.88265971 +.00000168 +00000-0 +15028-3 0  9995
2 33646 098.5343 178.4236 0124424 033.6194 327.2785 13.92671682438183
Source of the keplerian elements: AFSPC